Precipitable_Water
0.77 0.71 0.67 0.64 0.61 0.64 0.60 0.50 0.25 0.67 0.67 0.26 0.32 0.25 0.48 0.43 0.38 0.39 0.38 0.39 0.40 0.37 0.37 0.35 0.35 0.33 0.33 0.41 0.36 0.27 0.36 0.25 0.22 0.22 0.30 0.31 0.28 0.26 0.25 0.17 0.17 0.23 0.21 0.22
0.78 0.72 0.70 0.65 0.63 0.63 0.53 0.37 0.50 0.75 0.58 0.19 0.22 0.33 0.38 0.40 0.34 0.35 0.34 0.37 0.42 0.45 0.39 0.34 0.40 0.40 0.46 0.38 0.34 0.27 0.32 0.23 0.17 0.20 0.29 0.29 0.24 0.28 0.28 0.27 0.26 0.20 0.18 0.20
0.78 0.73 0.73 0.68 0.63 0.64 0.60 0.48 0.37 0.51 0.43 0.42 0.24 0.37 0.36 0.35 0.37 0.35 0.35 0.40 0.45 0.40 0.37 0.41 0.38 0.37 0.39 0.32 0.29 0.35 0.36 0.23 0.18 0.12 0.17 0.21 0.19 0.22 0.25 0.24 0.19 0.20 0.21 0.24
0.77 0.74 0.75 0.70 0.63 0.63 0.62 0.62 0.41 0.42 0.20 0.25 0.31 0.42 0.39 0.34 0.29 0.37 0.38 0.34 0.38 0.37 0.33 0.36 0.34 0.37 0.33 0.29 0.25 0.31 0.29 0.16 0.20 0.21 0.23 0.23 0.21 0.20 0.22 0.20 0.22 0.19 0.22 0.26
0.76 0.75 0.77 0.71 0.63 0.63 0.68 0.59 0.52 0.45 0.25 0.36 0.34 0.45 0.38 0.32 0.33 0.35 0.33 0.31 0.37 0.41 0.34 0.34 0.31 0.34 0.29 0.20 0.25 0.25 0.29 0.17 0.19 0.15 0.22 0.23 0.17 0.21 0.22 0.23 0.24 0.26 0.27 0.29
0.77 0.75 0.76 0.70 0.66 0.73 0.68 0.78 0.76 0.39 0.33 0.35 0.36 0.38 0.41 0.37 0.42 0.40 0.40 0.40 0.40 0.41 0.43 0.46 0.48 0.46 0.42 0.34 0.26 0.24 0.21 0.20 0.16 0.12 0.22 0.20 0.15 0.22 0.22 0.25 0.28 0.27 0.23 0.32
0.78 0.75 0.76 0.72 0.75 0.78 0.89 0.85 0.77 0.48 0.36 0.41 0.38 0.45 0.46 0.44 0.44 0.39 0.45 0.46 0.42 0.53 0.61 0.54 0.49 0.46 0.44 0.39 0.37 0.36 0.25 0.22 0.20 0.14 0.17 0.10 0.22 0.28 0.27 0.26 0.29 0.33 0.35 0.40
0.77 0.76 0.76 0.74 0.84 0.92 0.94 0.94 0.78 0.51 0.37 0.43 0.40 0.45 0.48 0.49 0.50 0.46 0.46 0.48 0.54 0.61 0.52 0.37 0.31 0.30 0.30 0.31 0.36 0.36 0.34 0.24 0.18 0.14 0.13 0.16 0.20 0.26 0.25 0.24 0.24 0.37 0.38 0.44
0.76 0.77 0.78 0.78 0.85 0.89 0.79 0.84 0.89 0.58 0.40 0.41 0.54 0.46 0.48 0.42 0.41 0.44 0.48 0.58 0.65 0.58 0.46 0.35 0.23 0.18 0.19 0.20 0.25 0.38 0.36 0.33 0.20 0.18 0.12 0.09 0.18 0.30 0.36 0.34 0.18 0.38 0.40 0.45
0.75 0.75 0.76 0.81 0.85 0.85 0.74 0.72 0.88 0.65 0.46 0.53 0.58 0.46 0.46 0.53 0.48 0.42 0.49 0.52 0.53 0.57 0.39 0.30 0.24 0.23 0.30 0.20 0.19 0.20 0.24 0.26 0.19 0.18 0.15 0.17 0.25 0.34 0.39 0.19 0.18 0.39 0.44 0.49
0.75 0.72 0.73 0.76 0.83 0.86 0.76 0.71 0.84 0.63 0.52 0.58 0.66 0.65 0.54 0.54 0.50 0.41 0.51 0.48 0.50 0.46 0.34 0.29 0.27 0.25 0.28 0.26 0.27 0.23 0.20 0.19 0.19 0.22 0.17 0.13 0.31 0.35 0.26 0.29 0.39 0.44 0.49 0.53
0.77 0.72 0.70 0.68 0.72 0.81 0.79 0.58 0.79 0.78 0.53 0.55 0.76 0.77 0.79 0.71 0.65 0.56 0.57 0.46 0.45 0.46 0.36 0.34 0.33 0.25 0.31 0.26 0.19 0.33 0.21 0.22 0.20 0.22 0.19 0.30 0.36 0.35 0.42 0.45 0.45 0.48 0.52 0.58
0.81 0.76 0.72 0.68 0.72 0.78 0.76 0.68 0.75 0.66 0.50 0.50 0.57 0.62 0.79 0.87 0.82 0.79 0.51 0.56 0.59 0.51 0.51 0.40 0.34 0.23 0.30 0.21 0.23 0.27 0.30 0.35 0.27 0.29 0.31 0.34 0.41 0.47 0.51 0.55 0.54 0.58 0.62 0.61
0.84 0.81 0.77 0.73 0.75 0.77 0.77 0.64 0.75 0.64 0.53 0.37 0.46 0.73 0.68 0.85 0.85 0.80 0.76 0.69 0.70 0.64 0.55 0.41 0.34 0.28 0.37 0.26 0.27 0.27 0.29 0.35 0.31 0.32 0.38 0.45 0.48 0.52 0.56 0.58 0.61 0.61 0.63 0.64
0.84 0.83 0.80 0.79 0.81 0.80 0.76 0.73 0.75 0.79 0.51 0.37 0.46 0.63 0.68 0.70 0.73 0.73 0.74 0.69 0.64 0.57 0.47 0.43 0.38 0.43 0.42 0.42 0.40 0.32 0.35 0.30 0.27 0.25 0.38 0.40 0.43 0.52 0.57 0.57 0.60 0.63 0.62 0.55
0.86 0.84 0.83 0.82 0.81 0.83 0.73 0.54 0.76 0.83 0.77 0.48 0.35 0.63 0.61 0.67 0.69 0.63 0.63 0.65 0.63 0.58 0.50 0.47 0.50 0.55 0.42 0.34 0.31 0.40 0.43 0.45 0.45 0.40 0.50 0.50 0.53 0.57 0.61 0.61 0.64 0.64 0.58 0.53
0.87 0.86 0.85 0.83 0.83 0.80 0.62 0.54 0.74 0.86 0.82 0.51 0.42 0.43 0.60 0.66 0.68 0.66 0.64 0.67 0.61 0.59 0.54 0.49 0.47 0.48 0.51 0.41 0.32 0.41 0.48 0.50 0.51 0.53 0.53 0.48 0.53 0.53 0.63 0.64 0.65 0.58 0.53 0.50
0.88 0.88 0.87 0.86 0.86 0.86 0.73 0.81 0.88 0.88 0.65 0.57 0.39 0.40 0.46 0.65 0.54 0.52 0.67 0.59 0.63 0.64 0.61 0.62 0.54 0.57 0.57 0.42 0.46 0.50 0.53 0.53 0.54 0.55 0.58 0.58 0.63 0.64 0.64 0.64 0.58 0.52 0.48 0.42
0.90 0.90 0.89 0.81 0.74 0.63 0.70 0.85 0.85 0.87 0.65 0.44 0.43 0.32 0.30 0.60 0.54 0.59 0.61 0.64 0.50 0.64 0.54 0.56 0.59 0.51 0.42 0.44 0.47 0.49 0.52 0.52 0.53 0.60 0.62 0.64 0.62 0.63 0.62 0.56 0.51 0.46 0.42 0.40
0.91 0.83 0.68 0.57 0.70 0.87 0.85 0.71 0.57 0.58 0.62 0.60 0.43 0.49 0.39 0.51 0.50 0.49 0.51 0.56 0.50 0.41 0.48 0.59 0.47 0.41 0.51 0.53 0.55 0.55 0.55 0.57 0.62 0.59 0.58 0.60 0.60 0.58 0.55 0.49 0.47 0.44 0.39 0.31
0.82 0.69 0.63 0.79 0.89 0.76 0.64 0.51 0.48 0.52 0.46 0.54 0.54 0.54 0.49 0.63 0.47 0.48 0.58 0.51 0.52 0.38 0.43 0.44 0.38 0.34 0.42 0.52 0.53 0.57 0.62 0.65 0.65 0.68 0.68 0.65 0.60 0.54 0.46 0.48 0.44 0.35 0.30 0.27
0.86 0.84 0.90 0.86 0.72 0.63 0.54 0.50 0.54 0.50 0.45 0.56 0.54 0.56 0.61 0.63 0.68 0.56 0.57 0.49 0.51 0.37 0.51 0.42 0.33 0.42 0.54 0.55 0.57 0.58 0.60 0.61 0.61 0.64 0.63 0.57 0.52 0.52 0.47 0.37 0.29 0.26 0.26 0.26
0.86 0.75 0.67 0.63 0.60 0.48 0.43 0.39 0.42 0.43 0.52 0.55 0.56 0.53 0.61 0.64 0.66 0.58 0.54 0.45 0.42 0.53 0.41 0.37 0.41 0.52 0.55 0.54 0.57 0.58 0.62 0.61 0.56 0.54 0.58 0.53 0.44 0.39 0.34 0.30 0.28 0.29 0.27 0.26
0.61 0.57 0.47 0.48 0.44 0.45 0.45 0.45 0.47 0.53 0.55 0.55 0.56 0.54 0.54 0.57 0.54 0.53 0.43 0.47 0.47 0.36 0.32 0.32 0.45 0.52 0.55 0.53 0.52 0.50 0.48 0.48 0.50 0.51 0.46 0.43 0.40 0.33 0.30 0.29 0.29 0.27 0.23 0.23
0.44 0.50 0.40 0.43 0.49 0.52 0.52 0.54 0.54 0.57 0.60 0.57 0.53 0.53 0.53 0.49 0.46 0.47 0.44 0.38 0.33 0.35 0.33 0.40 0.48 0.53 0.53 0.49 0.47 0.46 0.45 0.46 0.44 0.42 0.39 0.37 0.33 0.29 0.27 0.27 0.25 0.24 0.24 0.24
0.39 0.38 0.36 0.45 0.45 0.46 0.49 0.50 0.50 0.57 0.55 0.56 0.54 0.46 0.42 0.40 0.41 0.37 0.35 0.33 0.30 0.35 0.42 0.46 0.49 0.48 0.49 0.50 0.52 0.50 0.47 0.42 0.40 0.37 0.35 0.32 0.28 0.25 0.24 0.24 0.24 0.24 0.25 0.25
0.32 0.30 0.39 0.37 0.38 0.39 0.42 0.46 0.47 0.56 0.50 0.41 0.44 0.36 0.35 0.42 0.36 0.33 0.38 0.33 0.38 0.42 0.45 0.48 0.48 0.46 0.44 0.44 0.41 0.39 0.38 0.36 0.33 0.30 0.26 0.24 0.25 0.25 0.23 0.21 0.22 0.25 0.26 0.27
Wind_Speed
24 25 27 31 33 32 30 26 22 23 22 18 17 15 11 8 6 3 4 4 4 7 8 6 7 8 7 6 6 6 5 7 5 4 1 0 1 1 3 4 4 4 3 8
24 26 28 32 34 33 29 25 22 22 22 19 17 14 10 8 6 7 5 5 5 7 7 7 7 8 7 6 6 8 6 5 3 1 2 2 2 3 4 4 5 5 4 9
24 26 28 32 34 34 29 25 22 21 21 19 19 14 11 7 5 5 6 7 6 6 6 6 8 8 7 6 7 7 6 5 5 5 4 3 4 5 5 5 6 7 9 10
24 26 28 31 35 35 29 24 23 22 22 20 18 15 12 9 7 6 5 6 8 8 7 7 8 7 8 6 7 7 6 5 4 3 4 5 6 7 8 8 9 8 12 13
24 26 28 31 35 35 28 23 22 21 19 22 19 15 13 11 10 8 7 7 7 7 7 9 10 9 9 9 9 7 7 7 6 6 7 7 9 9 9 10 10 11 11 12
24 26 27 30 35 33 26 23 20 22 20 21 16 17 14 14 10 7 6 7 7 7 7 7 8 7 8 9 9 8 8 7 7 10 9 10 10 10 10 11 11 13 14 14
24 25 27 30 33 31 24 22 21 20 20 20 19 15 13 12 12 9 6 6 7 10 10 8 6 5 5 6 7 9 9 8 9 10 10 10 12 12 12 11 13 12 12 13
25 25 26 28 30 29 25 21 20 20 19 19 18 16 14 11 9 8 7 7 9 12 9 8 8 10 10 10 10 11 11 11 11 11 12 15 13 13 12 12 15 15 14 15
24 25 25 26 27 26 25 21 20 18 19 20 18 16 17 15 12 9 8 8 9 9 9 10 11 12 13 12 12 12 12 12 13 13 12 15 15 14 13 14 19 15 16 17
24 24 24 24 24 24 24 22 20 19 18 18 18 18 18 16 13 12 13 12 11 11 11 11 12 14 14 14 14 14 14 15 15 15 16 20 18 16 15 15 20 18 19 20
24 23 22 22 22 22 22 21 20 19 18 18 17 18 18 17 16 15 16 13 14 13 12 13 15 14 17 15 16 16 16 15 17 16 16 21 17 15 19 22 22 22 22 22
23 22 21 20 20 20 21 20 19 18 18 18 18 17 17 18 18 16 17 16 15 16 13 16 15 16 16 16 18 17 18 19 18 18 19 20 21 23 24 24 24 25 24 25
23 21 19 19 18 18 20 19 18 18 17 17 17 18 18 17 18 19 17 19 18 17 17 17 17 18 16 17 20 19 20 20 21 19 23 25 26 26 26 26 26 25 25 26
23 21 19 18 17 17 18 18 17 17 17 17 18 19 19 19 18 19 20 19 18 18 18 18 19 19 20 20 20 20 20 19 22 25 26 25 26 26 26 26 25 25 26 27
22 21 20 18 17 16 16 16 15 16 17 16 17 18 18 18 19 18 18 19 19 20 19 19 21 21 20 22 22 23 21 23 24 27 26 28 29 28 27 25 26 25 26 26
23 22 20 19 18 18 17 16 17 16 16 16 16 17 17 18 18 18 19 19 19 20 20 21 22 22 21 22 23 24 23 24 25 27 28 28 27 25 26 26 25 26 25 24
24 22 21 19 19 19 18 17 17 17 18 17 17 18 19 19 18 18 19 19 19 20 21 22 22 22 22 25 26 25 26 27 26 25 24 25 25 27 26 25 25 22 23 24
24 22 21 20 19 19 18 17 16 17 17 17 17 18 16 17 17 18 19 19 20 21 22 22 22 23 24 27 26 27 27 27 26 26 27 28 26 25 24 24 22 22 23 25
23 22 21 20 20 20 20 19 19 18 19 18 18 18 18 17 17 18 18 19 20 22 23 23 23 24 25 26 26 27 27 26 26 25 25 24 23 22 22 21 22 23 25 28
20 19 19 19 19 19 19 18 19 19 21 20 20 19 18 17 17 17 17 19 20 21 23 22 24 28 30 30 30 29 28 26 24 22 22 22 21 19 20 21 22 25 28 32
20 18 17 17 17 16 16 17 17 18 18 19 20 20 19 19 18 18 18 19 20 21 23 22 24 24 24 25 25 25 23 22 22 21 20 19 19 20 21 23 25 29 32 35
20 19 19 18 17 17 17 18 18 17 18 18 17 16 17 18 18 19 20 20 20 22 19 20 22 23 22 21 21 19 19 18 17 17 17 18 20 22 23 26 29 32 35 36
18 17 16 15 16 16 18 19 17 17 18 17 17 17 17 18 19 19 19 20 21 19 21 23 23 21 20 20 19 17 16 16 16 18 19 19 21 24 27 30 33 35 36 37
16 17 16 17 16 17 19 18 18 19 19 19 19 19 18 18 17 18 19 20 20 21 22 23 22 22 20 19 19 18 19 19 20 21 22 24 26 28 30 32 34 35 35 36
16 16 16 18 18 18 18 19 19 20 20 19 19 20 20 19 19 18 18 19 20 20 20 21 20 19 18 19 20 20 20 21 22 23 24 27 29 31 32 34 34 35 36 37
17 17 17 18 18 18 18 19 19 20 19 19 19 19 19 21 21 20 20 20 19 20 20 20 20 20 20 21 20 20 22 23 24 26 28 29 31 32 33 33 34 35 37 38
17 17 18 18 18 18 18 18 19 20 20 20 19 19 20 19 19 19 19 19 19 20 20 20 20 20 20 19 20 22 23 25 26 28 30 31 31 32 33 34 35 37 38 40
Wind_Direction
188 187 186 183 182 180 179 179 179 181 180 179 182 184 186 192 185 182 179 176 162 163 167 163 171 170 168 175 174 167 163 150 147 160 181 196 46 44 27 15 330 344 332 308
185 185 184 182 182 181 180 179 181 182 182 183 188 191 195 190 205 211 200 187 170 173 172 161 168 170 176 168 169 168 170 167 159 276 294 307 349 327 339 350 340 306 335 311
182 183 183 182 182 181 181 181 183 185 186 189 186 192 195 192 199 199 193 187 175 177 180 179 176 180 182 183 182 186 187 185 198 210 231 252 285 310 309 320 323 307 293 299
181 181 181 181 182 182 181 185 190 189 193 195 192 195 200 204 202 205 195 206 200 194 189 188 188 189 191 198 198 199 203 211 231 247 283 285 288 293 297 296 300 303 302 297
178 179 180 180 181 181 184 186 189 192 194 189 195 196 205 201 208 205 217 210 205 194 198 202 200 191 203 207 207 215 232 237 249 262 286 296 292 294 293 299 304 306 310 316
176 177 178 179 179 181 185 193 194 190 196 191 194 206 206 212 197 217 219 196 193 185 201 192 195 205 203 207 212 225 234 236 255 266 283 292 295 275 292 301 312 303 301 300
174 175 176 178 181 184 188 193 192 191 196 196 202 207 207 207 211 208 213 204 203 205 195 199 206 215 220 229 239 236 239 248 262 266 282 284 279 291 288 293 308 310 312 303
173 174 176 178 182 187 191 190 191 196 198 203 207 207 202 200 205 216 221 237 221 200 218 229 240 253 255 253 253 256 250 250 264 265 268 283 285 278 285 292 299 298 300 301
174 175 177 179 184 188 192 195 197 197 197 209 211 208 207 209 216 230 231 221 218 222 234 239 238 244 245 250 250 256 256 259 260 265 269 271 279 282 286 300 302 289 298 296
175 177 179 182 186 191 196 199 201 202 204 213 214 216 215 218 224 231 231 233 237 243 246 248 247 253 250 250 248 254 262 267 258 267 273 282 276 277 286 301 298 297 298 297
178 179 181 185 188 193 198 200 205 207 211 216 220 222 222 225 231 234 235 241 251 251 252 252 254 256 256 259 256 256 254 256 263 269 276 282 269 275 281 291 298 297 298 296
180 181 184 187 192 195 199 202 207 210 214 219 222 224 229 234 234 236 239 243 248 245 252 255 259 262 263 263 264 261 264 258 264 260 270 277 273 282 286 289 294 295 295 298
183 185 187 191 195 199 203 205 211 214 218 225 226 231 236 237 242 240 243 250 249 252 255 255 260 263 263 263 266 265 268 264 269 274 276 275 280 284 287 289 293 294 297 298
188 190 192 193 196 201 204 209 215 217 221 227 234 236 239 244 246 246 248 248 253 253 257 260 262 264 263 267 268 267 270 271 272 276 281 284 285 284 286 290 291 293 295 298
193 194 197 201 203 204 204 210 218 222 224 229 235 239 244 247 249 249 249 248 252 256 260 263 263 265 269 270 272 272 272 272 275 277 278 281 283 283 283 286 288 290 294 299
199 201 204 207 209 210 216 223 228 231 231 235 240 244 247 249 250 249 250 254 256 259 260 262 265 267 268 269 272 277 277 276 276 280 281 283 283 281 283 285 286 290 293 294
204 207 210 214 216 218 223 227 233 236 235 239 245 250 249 251 251 253 256 259 260 261 262 265 266 270 269 271 273 280 279 280 281 281 283 286 281 283 282 283 287 287 294 296
206 210 213 217 218 221 228 235 239 239 237 242 244 249 252 253 255 256 260 261 263 267 265 268 269 273 272 274 279 280 280 281 280 278 283 283 282 283 283 285 281 287 293 296
206 210 216 221 227 230 234 240 243 240 240 242 246 246 253 254 256 259 264 264 267 268 267 269 272 271 270 279 281 282 283 281 281 280 282 282 280 280 282 280 282 287 294 298
203 210 218 224 227 232 235 239 242 245 246 247 249 250 254 257 259 262 265 269 266 270 270 274 273 275 279 280 281 282 282 279 275 277 280 282 282 278 281 282 285 291 295 299
209 213 217 221 223 228 235 239 241 244 249 251 251 250 255 259 260 260 264 268 271 272 273 272 278 281 284 287 287 283 281 279 280 281 277 280 277 276 281 285 290 295 299 301
214 217 221 226 234 238 240 240 242 243 247 252 253 256 257 261 262 264 266 266 270 272 274 276 281 285 287 290 291 289 285 283 285 283 274 279 280 284 285 290 295 298 300 302
212 219 221 226 232 230 235 235 243 245 252 255 256 259 261 264 264 265 266 264 267 272 273 277 282 286 287 289 289 289 284 284 283 282 284 283 284 288 291 294 297 299 301 303
220 223 224 228 232 236 240 244 249 251 255 257 258 261 262 263 265 263 265 267 270 271 275 278 280 284 282 283 283 282 281 282 284 286 284 287 289 292 294 296 298 300 302 303
226 227 232 236 238 241 244 247 250 254 256 257 259 261 262 265 264 267 267 272 270 272 277 281 280 282 281 282 284 284 283 285 287 286 288 290 292 294 296 298 299 300 301 303
234 236 237 237 240 244 247 249 252 254 256 259 260 261 265 265 264 267 268 266 273 274 273 275 277 279 282 283 281 278 281 287 288 289 291 293 295 296 297 299 300 301 303 304
240 242 238 242 245 247 249 251 254 256 256 259 261 263 261 266 267 268 271 269 270 272 274 274 274 275 277 279 282 285 286 288 290 291 293 294 295 296 298 299 301 303 304 304